CCA1385 ZBAA-ZGGG

Flight info

Callsign CCA1385
Flight time N/A
Altitude 34100
Route RUSDO6J RUSDO W45 LYA/K0863S1010 W45 ML/K0861S1040 W45 NUPTI/K0856S1070 W45 VESUX/K0861S1040 W45 IKAVO IKAVO8
Aircraft A321/M-SDE3FGHIRWY/LB1

Departure

Time 2026-05-01 13:39
Airport Beijing Capital International Airport (ZBAA)

Arrival

Time N/A
Airport Guangzhou Baiyun International Airport (ZGGG)
Time Latitude Longitude Altitude Speed Heading
2026-05-01 13:19 40.07081 116.60525 123 ft 0 kts 83°
2026-05-01 13:27 40.07080 116.60512 123 ft 2 kts 85°
2026-05-01 13:28 40.07076 116.60474 123 ft 2 kts 83°
2026-05-01 13:28 40.07075 116.60458 123 ft 0 kts 83°
2026-05-01 13:29 40.07066 116.60426 123 ft 2 kts 53°
2026-05-01 13:29 40.07043 116.60402 123 ft 2 kts 19°
2026-05-01 13:30 40.07014 116.60399 123 ft 0 kts 353°
2026-05-01 13:32 40.07015 116.60399 123 ft 0 kts 353°
2026-05-01 13:33 40.07066 116.60391 123 ft 11 kts 354°
2026-05-01 13:33 40.07264 116.60361 123 ft 17 kts 353°
2026-05-01 13:34 40.07538 116.60275 123 ft 20 kts 322°
2026-05-01 13:34 40.07687 116.60030 123 ft 14 kts 352°
2026-05-01 13:35 40.07953 116.59986 123 ft 26 kts 353°
2026-05-01 13:35 40.08150 116.59956 123 ft 28 kts 354°
2026-05-01 13:35 40.08546 116.59894 123 ft 28 kts 353°
2026-05-01 13:36 40.08741 116.59863 123 ft 27 kts 354°
2026-05-01 13:36 40.08878 116.59835 123 ft 12 kts 332°
2026-05-01 13:36 40.08888 116.59641 123 ft 7 kts 264°
2026-05-01 13:37 40.08888 116.59637 123 ft 0 kts 264°
2026-05-01 13:37 40.08883 116.59583 123 ft 12 kts 263°
2026-05-01 13:37 40.08843 116.59501 123 ft 8 kts 194°
2026-05-01 13:38 40.08817 116.59500 123 ft 0 kts 174°
2026-05-01 13:38 40.08800 116.59502 123 ft 9 kts 174°
2026-05-01 13:38 40.08501 116.59549 123 ft 78 kts 173°
2026-05-01 13:39 40.07741 116.59671 124 ft 138 kts 173°
2026-05-01 13:39 40.06622 116.59850 254 ft 175 kts 172°
2026-05-01 13:39 40.05390 116.60049 742 ft 185 kts 172°
2026-05-01 13:39 40.04133 116.60244 1589 ft 178 kts 171°
2026-05-01 13:40 40.02890 116.60435 2218 ft 183 kts 170°
2026-05-01 13:40 40.01605 116.60641 2645 ft 187 kts 170°
2026-05-01 13:40 40.00281 116.60850 3020 ft 195 kts 170°
2026-05-01 13:40 39.98910 116.61068 3388 ft 203 kts 171°
2026-05-01 13:41 39.97460 116.61300 3654 ft 217 kts 172°
2026-05-01 13:41 39.95867 116.61552 3876 ft 236 kts 172°
2026-05-01 13:41 39.94176 116.61815 4313 ft 247 kts 173°
2026-05-01 13:41 39.92466 116.62080 4943 ft 248 kts 174°
2026-05-01 13:42 39.90762 116.62347 5562 ft 251 kts 175°
2026-05-01 13:42 39.88971 116.62620 5997 ft 262 kts 175°
2026-05-01 13:42 39.87125 116.62901 6610 ft 267 kts 176°
2026-05-01 13:42 39.85286 116.63183 7285 ft 269 kts 176°
2026-05-01 13:43 39.83406 116.63472 7960 ft 271 kts 176°
2026-05-01 13:43 39.81533 116.63757 8624 ft 274 kts 176°
2026-05-01 13:43 39.79639 116.64043 9256 ft 277 kts 176°
2026-05-01 13:43 39.77695 116.64339 9890 ft 280 kts 176°
2026-05-01 13:44 39.75723 116.64636 10395 ft 288 kts 175°
2026-05-01 13:44 39.73662 116.64946 10683 ft 304 kts 175°
2026-05-01 13:44 39.71510 116.65185 10951 ft 318 kts 184°
2026-05-01 13:44 39.69319 116.64592 11216 ft 329 kts 203°
2026-05-01 13:45 39.67350 116.62972 11467 ft 341 kts 223°
2026-05-01 13:45 39.65913 116.60483 11698 ft 355 kts 243°
2026-05-01 13:45 39.65246 116.57344 11977 ft 367 kts 263°
2026-05-01 13:45 39.65034 116.54003 12468 ft 371 kts 265°
2026-05-01 13:46 39.64841 116.50684 12968 ft 375 kts 265°
2026-05-01 13:46 39.64639 116.47317 13465 ft 379 kts 265°
2026-05-01 13:46 39.64426 116.43865 13958 ft 382 kts 265°
2026-05-01 13:46 39.64210 116.40437 14485 ft 384 kts 265°
2026-05-01 13:47 39.63988 116.36983 15003 ft 385 kts 265°
2026-05-01 13:47 39.63762 116.33494 15504 ft 387 kts 264°
2026-05-01 13:47 39.63533 116.30011 16001 ft 389 kts 264°
2026-05-01 13:47 39.63303 116.26508 16506 ft 390 kts 264°
2026-05-01 13:48 39.63069 116.22999 17027 ft 391 kts 264°
2026-05-01 13:48 39.62837 116.19503 17488 ft 392 kts 264°
2026-05-01 13:48 39.62602 116.15988 17957 ft 393 kts 264°
2026-05-01 13:48 39.62365 116.12434 18378 ft 395 kts 264°
2026-05-01 13:49 39.62126 116.08890 18772 ft 397 kts 265°
2026-05-01 13:49 39.61883 116.05327 19166 ft 398 kts 265°
2026-05-01 13:49 39.61666 116.02123 19569 ft 398 kts 265°
2026-05-01 13:49 39.61531 116.00165 19839 ft 398 kts 265°
2026-05-01 13:50 39.61283 115.96560 20245 ft 398 kts 265°
2026-05-01 13:50 39.61037 115.92990 20602 ft 400 kts 265°
2026-05-01 13:50 39.60786 115.89371 20995 ft 401 kts 265°
2026-05-01 13:50 39.60691 115.85753 21334 ft 403 kts 273°
2026-05-01 13:51 39.61139 115.82128 21678 ft 405 kts 284°
2026-05-01 13:51 39.62125 115.78670 21992 ft 408 kts 294°
2026-05-01 13:51 39.63440 115.75379 22340 ft 410 kts 297°
2026-05-01 13:51 39.64793 115.72128 22678 ft 411 kts 297°
2026-05-01 13:52 39.66160 115.68856 23018 ft 412 kts 297°
2026-05-01 13:52 39.67534 115.65548 23374 ft 413 kts 297°
2026-05-01 13:52 39.68920 115.62209 23709 ft 414 kts 297°
2026-05-01 13:52 39.70297 115.58896 24046 ft 415 kts 296°
2026-05-01 13:53 39.71658 115.55606 24387 ft 415 kts 296°
2026-05-01 13:53 39.74253 115.48917 24969 ft 415 kts 287°
2026-05-01 13:53 39.74765 115.45239 25254 ft 414 kts 272°
2026-05-01 13:54 39.74472 115.41487 25544 ft 416 kts 258°
2026-05-01 13:54 39.73419 115.37975 25730 ft 422 kts 246°
2026-05-01 13:54 39.72074 115.34549 25945 ft 425 kts 245°
2026-05-01 13:54 39.70742 115.31185 26204 ft 425 kts 245°
2026-05-01 13:55 39.69378 115.27743 26603 ft 423 kts 245°
2026-05-01 13:55 39.68037 115.24363 27040 ft 419 kts 245°
2026-05-01 13:55 39.66694 115.20982 27466 ft 416 kts 245°
2026-05-01 13:55 39.65380 115.17683 27847 ft 414 kts 245°
2026-05-01 13:56 39.64052 115.14348 28261 ft 411 kts 245°
2026-05-01 13:56 39.62758 115.11103 28682 ft 407 kts 245°
2026-05-01 13:56 39.61453 115.07839 29114 ft 403 kts 245°
2026-05-01 13:56 39.60182 115.04662 29542 ft 399 kts 245°
2026-05-01 13:57 39.59244 115.02316 29816 ft 398 kts 246°
2026-05-01 13:57 39.57624 114.98260 30250 ft 396 kts 246°
2026-05-01 13:57 39.56347 114.95077 30583 ft 395 kts 246°
2026-05-01 13:57 39.55078 114.91912 30921 ft 393 kts 246°
2026-05-01 13:58 39.53815 114.88768 31245 ft 392 kts 246°
2026-05-01 13:58 39.52570 114.85670 31558 ft 391 kts 246°
2026-05-01 13:58 39.51307 114.82532 31863 ft 390 kts 245°
2026-05-01 13:58 39.50050 114.79414 32148 ft 389 kts 246°
2026-05-01 13:59 39.48804 114.76333 32419 ft 389 kts 246°
2026-05-01 13:59 39.47540 114.73200 32655 ft 389 kts 246°
2026-05-01 13:59 39.46275 114.70078 32839 ft 390 kts 246°
2026-05-01 13:59 39.45030 114.66994 33028 ft 391 kts 246°
2026-05-01 14:00 39.43760 114.63860 33251 ft 391 kts 246°
2026-05-01 14:00 39.42498 114.60748 33449 ft 391 kts 246°
2026-05-01 14:00 39.41225 114.57613 33627 ft 393 kts 246°
2026-05-01 14:00 39.39965 114.54507 33855 ft 392 kts 246°
2026-05-01 14:01 39.38687 114.51366 34038 ft 393 kts 245°
2026-05-01 14:01 39.37410 114.48234 34046 ft 392 kts 245°
2026-05-01 14:01 39.34872 114.42024 34052 ft 392 kts 246°
2026-05-01 14:02 39.32314 114.35787 34051 ft 393 kts 246°
2026-05-01 14:02 39.29746 114.29501 34054 ft 395 kts 245°
2026-05-01 14:03 39.27104 114.23347 34055 ft 396 kts 240°
2026-05-01 14:03 39.23524 114.17855 34056 ft 406 kts 229°
2026-05-01 14:04 39.18928 114.13421 34050 ft 416 kts 217°
2026-05-01 14:04 39.13533 114.10433 34046 ft 427 kts 204°
2026-05-01 14:05 39.07768 114.08317 34035 ft 428 kts 203°
2026-05-01 14:05 39.02023 114.06272 34037 ft 429 kts 203°
2026-05-01 14:06 38.96238 114.04220 34028 ft 429 kts 203°
2026-05-01 14:06 38.90480 114.02172 34028 ft 429 kts 203°
2026-05-01 14:07 38.84701 114.00139 34023 ft 428 kts 202°
2026-05-01 14:08 38.76028 113.97083 34031 ft 427 kts 202°
2026-05-01 14:08 38.70309 113.95066 34033 ft 427 kts 203°
2026-05-01 14:09 38.64599 113.93050 34022 ft 427 kts 202°
2026-05-01 14:09 38.58801 113.91007 34010 ft 428 kts 202°
2026-05-01 14:10 38.53051 113.88985 34004 ft 427 kts 202°
2026-05-01 14:10 38.47319 113.86979 33988 ft 428 kts 202°
2026-05-01 14:11 38.41557 113.84965 33983 ft 428 kts 202°
2026-05-01 14:11 38.32907 113.81949 33988 ft 427 kts 202°
2026-05-01 14:12 38.27128 113.79940 33990 ft 426 kts 202°
2026-05-01 14:12 38.21410 113.77959 33994 ft 427 kts 202°
2026-05-01 14:13 38.15642 113.75970 34000 ft 427 kts 202°
2026-05-01 14:13 38.09876 113.73984 34010 ft 427 kts 201°
2026-05-01 14:14 38.04127 113.72002 34011 ft 427 kts 201°
2026-05-01 14:14 37.98412 113.70046 34010 ft 426 kts 201°
2026-05-01 14:15 37.92667 113.68073 34006 ft 425 kts 201°
2026-05-01 14:15 37.86928 113.66114 34020 ft 426 kts 201°
2026-05-01 14:16 37.81211 113.64172 34018 ft 425 kts 201°
2026-05-01 14:16 37.75472 113.62219 34023 ft 425 kts 201°
2026-05-01 14:17 37.69731 113.60265 34027 ft 426 kts 201°
2026-05-01 14:17 37.63989 113.58313 34032 ft 425 kts 201°
2026-05-01 14:18 37.58261 113.56369 34044 ft 426 kts 201°
2026-05-01 14:18 37.53482 113.54751 34052 ft 425 kts 201°
2026-05-01 14:19 37.46836 113.52500 34062 ft 424 kts 201°
2026-05-01 14:19 37.41128 113.50574 34062 ft 425 kts 201°
2026-05-01 14:20 37.32547 113.47675 34069 ft 425 kts 201°
2026-05-01 14:21 37.26840 113.45758 34073 ft 425 kts 201°
2026-05-01 14:21 37.21131 113.43840 34081 ft 424 kts 201°
2026-05-01 14:22 37.12567 113.40966 34078 ft 425 kts 200°
2026-05-01 14:22 37.06849 113.39051 34082 ft 424 kts 200°
2026-05-01 14:23 37.01178 113.37157 34080 ft 425 kts 200°
2026-05-01 14:23 36.95438 113.35244 34077 ft 424 kts 200°
2026-05-01 14:24 36.89739 113.33324 34080 ft 425 kts 200°
2026-05-01 14:24 36.84016 113.31414 34068 ft 424 kts 200°
2026-05-01 14:25 36.78316 113.29517 34070 ft 424 kts 200°
2026-05-01 14:25 36.72616 113.27628 34070 ft 422 kts 200°
2026-05-01 14:26 36.64079 113.24804 34063 ft 422 kts 200°
2026-05-01 14:27 36.58408 113.22932 34063 ft 422 kts 200°
2026-05-01 14:27 36.52713 113.21053 34060 ft 422 kts 200°
2026-05-01 14:28 36.44158 113.18243 34053 ft 421 kts 200°
2026-05-01 14:28 36.38495 113.16383 34058 ft 421 kts 200°
2026-05-01 14:29 36.32844 113.14535 34058 ft 421 kts 200°
2026-05-01 14:30 36.21634 113.10353 34050 ft 416 kts 206°
2026-05-01 14:31 36.13671 113.06218 34053 ft 415 kts 207°
2026-05-01 14:31 36.08344 113.03449 34062 ft 414 kts 207°
2026-05-01 14:32 36.03001 113.00671 34067 ft 414 kts 207°
2026-05-01 14:32 35.97701 112.97919 34065 ft 413 kts 207°
2026-05-01 14:33 35.92354 112.95145 34067 ft 414 kts 207°
2026-05-01 14:33 35.87022 112.92391 34067 ft 415 kts 207°
2026-05-01 14:34 35.81694 112.89650 34063 ft 415 kts 207°
2026-05-01 14:34 35.76377 112.86897 34063 ft 413 kts 207°
2026-05-01 14:35 35.71069 112.84127 34063 ft 416 kts 207°
2026-05-01 14:35 35.65722 112.81344 34063 ft 416 kts 207°
2026-05-01 14:36 35.60375 112.78574 34067 ft 416 kts 207°
2026-05-01 14:36 35.55024 112.75784 34062 ft 416 kts 207°
2026-05-01 14:37 35.49678 112.72992 34064 ft 417 kts 207°
2026-05-01 14:37 35.44350 112.70219 34063 ft 417 kts 207°
2026-05-01 14:38 35.39014 112.67442 34063 ft 417 kts 207°
2026-05-01 14:38 35.33633 112.64649 34060 ft 418 kts 207°
2026-05-01 14:39 35.28261 112.61864 34062 ft 418 kts 207°
2026-05-01 14:39 35.22932 112.59107 34060 ft 418 kts 206°
2026-05-01 14:40 35.17545 112.56331 34060 ft 420 kts 206°
2026-05-01 14:40 35.12114 112.53593 34059 ft 421 kts 205°
2026-05-01 14:41 35.06553 112.51360 34060 ft 423 kts 201°
2026-05-01 14:41 35.00908 112.49277 34056 ft 423 kts 201°
2026-05-01 14:42 34.95247 112.47198 34056 ft 424 kts 201°
2026-05-01 14:42 34.89638 112.45141 34052 ft 424 kts 200°
2026-05-01 14:43 34.83957 112.43073 34054 ft 424 kts 200°
2026-05-01 14:43 34.78202 112.41370 34050 ft 427 kts 195°
2026-05-01 14:44 34.72279 112.40414 34048 ft 431 kts 189°
2026-05-01 14:44 34.63246 112.40443 34050 ft 436 kts 181°
2026-05-01 14:45 34.54148 112.41212 34047 ft 436 kts 181°
2026-05-01 14:46 34.48085 112.41727 34048 ft 436 kts 181°
2026-05-01 14:46 34.39009 112.42501 34047 ft 436 kts 181°
2026-05-01 14:47 34.32949 112.43018 34045 ft 435 kts 181°
2026-05-01 14:48 34.23841 112.43792 34039 ft 436 kts 181°
2026-05-01 14:48 34.14753 112.44566 34040 ft 437 kts 181°
2026-05-01 14:49 34.02636 112.45595 34034 ft 437 kts 181°
2026-05-01 14:50 33.90498 112.46621 34036 ft 437 kts 181°
2026-05-01 14:51 33.81382 112.47391 34033 ft 438 kts 181°
2026-05-01 14:52 33.72232 112.48161 34033 ft 438 kts 181°
2026-05-01 14:53 33.63128 112.48930 34017 ft 437 kts 181°
2026-05-01 14:53 33.57037 112.49445 34015 ft 438 kts 181°
2026-05-01 14:54 33.50950 112.49959 34016 ft 438 kts 181°
2026-05-01 14:54 33.44830 112.50479 34019 ft 439 kts 181°
2026-05-01 14:55 33.38755 112.50997 34012 ft 439 kts 181°
2026-05-01 14:55 33.32659 112.51514 34014 ft 439 kts 181°
2026-05-01 14:56 33.26555 112.52032 34018 ft 440 kts 181°
2026-05-01 14:56 33.20437 112.52553 34025 ft 440 kts 181°
2026-05-01 14:57 33.14343 112.53069 34026 ft 439 kts 181°
2026-05-01 14:57 33.05167 112.53844 34024 ft 439 kts 181°
2026-05-01 14:58 32.99079 112.54276 34021 ft 437 kts 184°
2026-05-01 14:58 32.93039 112.54057 34020 ft 434 kts 189°
2026-05-01 14:59 32.87082 112.53078 34019 ft 431 kts 195°
2026-05-01 14:59 32.81258 112.51373 34013 ft 428 kts 200°
2026-05-01 15:00 32.72635 112.48574 34010 ft 429 kts 200°
2026-05-01 15:01 32.66859 112.46701 34014 ft 429 kts 200°
2026-05-01 15:01 32.61108 112.44834 34003 ft 428 kts 200°
2026-05-01 15:02 32.55371 112.42975 34002 ft 428 kts 200°
2026-05-01 15:02 32.49617 112.41106 33999 ft 428 kts 200°
2026-05-01 15:03 32.43835 112.39233 33996 ft 428 kts 200°
2026-05-01 15:03 32.38110 112.37382 33990 ft 428 kts 200°
2026-05-01 15:04 32.32364 112.35523 33998 ft 428 kts 200°
2026-05-01 15:04 32.26607 112.33651 33994 ft 428 kts 200°
2026-05-01 15:05 32.20838 112.31773 33989 ft 428 kts 200°
2026-05-01 15:05 32.15093 112.29924 33987 ft 429 kts 200°
2026-05-01 15:06 32.09340 112.28088 33985 ft 428 kts 199°
2026-05-01 15:06 32.03445 112.26661 33984 ft 431 kts 195°
2026-05-01 15:07 31.97520 112.25446 33980 ft 431 kts 195°
2026-05-01 15:07 31.91630 112.24245 33980 ft 432 kts 195°
2026-05-01 15:08 31.85701 112.23048 33979 ft 432 kts 195°
2026-05-01 15:08 31.79723 112.21845 33976 ft 433 kts 194°
2026-05-01 15:09 31.73772 112.20645 33979 ft 435 kts 195°
2026-05-01 15:09 31.67808 112.19442 33976 ft 435 kts 195°
2026-05-01 15:10 31.61794 112.18231 33970 ft 435 kts 195°
2026-05-01 15:10 31.52819 112.16429 33961 ft 435 kts 195°
2026-05-01 15:11 31.43858 112.14635 33954 ft 436 kts 195°
2026-05-01 15:12 31.37898 112.13312 33957 ft 435 kts 197°
2026-05-01 15:12 31.28990 112.11118 33957 ft 436 kts 197°
2026-05-01 15:14 31.14043 112.07458 33957 ft 438 kts 197°
2026-05-01 15:14 31.05077 112.05270 33955 ft 439 kts 197°
2026-05-01 15:15 30.93072 112.02351 33952 ft 440 kts 197°
2026-05-01 15:16 30.81017 111.99437 33947 ft 443 kts 197°
2026-05-01 15:18 30.65894 111.95785 33946 ft 443 kts 197°
2026-05-01 15:19 30.53769 111.92857 33945 ft 445 kts 197°
2026-05-01 15:19 30.44611 111.90657 33944 ft 446 kts 197°
2026-05-01 15:20 30.35482 111.88474 33938 ft 447 kts 197°
2026-05-01 15:21 30.29346 111.87006 33935 ft 449 kts 197°
2026-05-01 15:21 30.23244 111.85553 33926 ft 448 kts 197°
2026-05-01 15:22 30.14002 111.83349 33914 ft 452 kts 197°
2026-05-01 15:22 30.07816 111.81879 33917 ft 452 kts 197°
2026-05-01 15:23 30.01668 111.80418 33914 ft 453 kts 197°
2026-05-01 15:23 29.95477 111.78951 33915 ft 453 kts 197°
2026-05-01 15:24 29.89287 111.77485 33914 ft 452 kts 197°
2026-05-01 15:24 29.83093 111.76030 33911 ft 452 kts 197°
2026-05-01 15:25 29.76911 111.74573 33914 ft 453 kts 197°
2026-05-01 15:25 29.70741 111.73119 33917 ft 453 kts 196°
2026-05-01 15:26 29.64527 111.71656 33923 ft 454 kts 197°
2026-05-01 15:26 29.58356 111.70205 33926 ft 453 kts 197°
2026-05-01 15:27 29.52178 111.68755 33927 ft 454 kts 197°
2026-05-01 15:28 29.42856 111.66569 33928 ft 453 kts 197°
2026-05-01 15:28 29.36633 111.65210 33932 ft 455 kts 193°
2026-05-01 15:29 29.27092 111.64346 33933 ft 459 kts 188°
2026-05-01 15:30 29.14291 111.63676 33933 ft 460 kts 188°
2026-05-01 15:31 28.95071 111.62671 33913 ft 460 kts 188°
2026-05-01 15:32 28.82460 111.61879 33918 ft 458 kts 190°
2026-05-01 15:34 28.63116 111.59777 33930 ft 459 kts 190°